This is the latest recevied weather packets stored in our database for station/object IU5JAE-13. If no packets are shown the sender has not sent any weather packets the latest 10 day(s).
| Time | Temp. | Humidity | Pressure | Rain* | Wind** | Luminosity | Snow |
|---|---|---|---|---|---|---|---|
| 1788371725 | 22.22° C | 81% | 1019.6 hPa | 0 mm | - | 2 W/m² | - |
| 1788371123 | 22.22° C | 81% | 1019.6 hPa | 0 mm | - | 5 W/m² | - |
| 1788370521 | 22.78° C | 83% | 1019.5 hPa | 0 mm | - | 11 W/m² | - |
| 1788369918 | 23.33° C | 78% | 1019.5 hPa | 0 mm | - | 16 W/m² | - |
| 1788369328 | 23.33° C | 76% | 1019.3 hPa | 0 mm | - | 23 W/m² | - |
| 1788368733 | 23.89° C | 74% | 1019.2 hPa | 0 mm | - | 27 W/m² | - |
| 1788368131 | 23.89° C | 72% | 1019.2 hPa | 0 mm | - | 38 W/m² | - |
| 1788367529 | 23.89° C | 71% | 1019.3 hPa | 0 mm | - | 62 W/m² | - |
| 1788366926 | 24.44° C | 72% | 1019.5 hPa | 0 mm | - | 62 W/m² | - |
| 1788366324 | 24.44° C | 67% | 1019.5 hPa | 0 mm | - | 55 W/m² | - |
| 1788365721 | 25° C | 67% | 1019.5 hPa | 0 mm | - | 68 W/m² | - |
| 1788365120 | 25.56° C | 61% | 1019.4 hPa | 0 mm | - | 71 W/m² | - |
| 1788364516 | 26.11° C | 63% | 1019.5 hPa | 0 mm | - | 106 W/m² | - |
| 1788363934 | 26.11° C | 64% | 1019.5 hPa | 0 mm | - | 191 W/m² | - |
| 1788363332 | 25° C | 69% | 1019.7 hPa | 0 mm | - | 195 W/m² | - |
| 1788362730 | 25° C | 70% | 1019.8 hPa | 0 mm | - | 56 W/m² | - |
| 1788362127 | 25° C | 67% | 1019.9 hPa | 0 mm | - | 83 W/m² | - |
| 1788361525 | 25° C | 67% | 1019.8 hPa | 0 mm | - | 102 W/m² | - |
| 1788360922 | 25.56° C | 64% | 1019.9 hPa | 0 mm | - | 101 W/m² | - |
| 1788360320 | 25.56° C | 65% | 1019.8 hPa | 0 mm | - | 125 W/m² | - |
| 1788359718 | 26.11° C | 67% | 1019.6 hPa | 0 mm | - | 156 W/m² | - |
| 1788359135 | 26.67° C | 65% | 1019.8 hPa | 0 mm | - | 217 W/m² | - |
| 1788358532 | 26.67° C | 68% | 1020 hPa | 0 mm | - | 219 W/m² | - |
| 1788357930 | 27.22° C | 69% | 1019.8 hPa | 0 mm | - | 359 W/m² | - |
| 1788357328 | 27.22° C | 70% | 1019.8 hPa | 0 mm | - | 337 W/m² | - |
* Rain latest hour (hover to see other rain measurements)
** Current wind speed in m/s (hover to see current wind gust speed)